Flag for U.S.A. Weather past 2 weeks in Honolulu, Hawaii, U.S.A.

Now
78 °F

Broken clouds.


Feels Like: 81 °F
Forecast: 76 / 85 °F
Wind: 3 mph from North

Location: Honolulu International Airport

Current Time: Sep 3, 2015 at 9:52:43 AM

Latest Report: Sep 3, 2015 at 8:53 AM


Visibility: 10 mi

Pressure: 29.89 "Hg

Humidity: 84%

Dew point: 73 °F

Location of HonoluluLocation

Historic Weather in Honolulu — Graph

°F

Honolulu temperature yesterday

Maximum temperature yesterday: 87 °F (at 2:53 PM)
Minimum temperature yesterday: 76 °F (at 4:53 AM)
Average temperature yesterday: 82 °F

Past Weeks' High & Low Weather Summary

 TemperatureHumidityPressure
High91 °F (Aug 21, 1:53 PM)100% (Aug 23, 7:31 PM)29.95 "Hg (Aug 23, 7:31 PM)
Low73 °F (Aug 24, 3:40 AM)49% (Aug 21, 1:53 PM)29.77 "Hg (Sep 1, 2:53 PM)
Average82 °F79%29.87 "Hg
* Reported Aug 19 8:53 AM — Sep 3 8:53 AM, Honolulu, Weather by CustomWeather, © 2015

Note: Actual official high and low records may vary slightly from our data, if they occured in-between our weather recording intervals... More about our weather records

Advertising

Honolulu weather history for previous 24 hours

 ConditionsComfort  
Time TempWeatherWind HumidityBarometerVisibility
8:53 AM
Thu, Sep 3
78 °FBroken clouds.3 mph84%29.89 "Hg10 mi
7:53 AM76 °FLight rain. Broken clouds.8 mph97%29.89 "Hg9 mi
6:53 AM79 °FBroken clouds.7 mph90%29.86 "Hg10 mi
5:53 AM78 °FPassing clouds.6 mph93%29.85 "Hg10 mi
4:53 AM80 °FPassing clouds.8 mph87%29.85 "Hg10 mi
3:53 AM80 °FPassing clouds.8 mph90%29.85 "Hg10 mi
2:53 AM81 °FPartly cloudy.7 mph88%29.85 "Hg10 mi
1:53 AM81 °FPartly cloudy.6 mph91%29.86 "Hg10 mi
12:53 AM79 °FPartly cloudy.3 mph90%29.86 "Hg10 mi
11:53 PM
Wed, Sep 2
80 °FHeavy rain. Passing clouds.5 mph90%29.88 "Hg10 mi
10:53 PM81 °FPassing clouds.3 mph82%29.88 "Hg10 mi
9:53 PM81 °FPassing clouds.3 mph79%29.88 "Hg10 mi
8:53 PM82 °FPassing clouds.3 mph79%29.87 "Hg10 mi
7:53 PM82 °FPassing clouds.5 mph79%29.86 "Hg10 mi
6:53 PM83 °FPassing clouds.6 mph79%29.84 "Hg10 mi
5:53 PM83 °FBroken clouds.6 mph77%29.82 "Hg10 mi
4:53 PM85 °FBroken clouds.7 mph75%29.81 "Hg10 mi
3:53 PM85 °FBroken clouds.9 mph75%29.80 "Hg10 mi
2:53 PM87 °FLight rain. Broken clouds.9 mph72%29.80 "Hg10 mi
1:53 PM85 °FBroken clouds.10 mph77%29.82 "Hg10 mi
12:53 PM85 °FBroken clouds.10 mph77%29.83 "Hg10 mi
11:53 AM85 °FScattered clouds.10 mph77%29.85 "Hg10 mi
10:53 AM84 °FScattered clouds.7 mph80%29.85 "Hg10 mi
9:53 AM83 °FBroken clouds.6 mph82%29.86 "Hg10 mi
Weather by CustomWeather, © 2015

See weather overviewHow to use our weather pages